Zurück zum Katalog

STARLINK-37924

AktivKommunikationSSO
NORAD 69569·PAYLOAD·🇺🇸 United States

Gestartet Jun 15, 2026 von Vandenberg Space Force Base

Loading…

Nächste Überflüge (nächste 24 Stunden)

TLE

AktuellSource: CelesTrak SupGP

Epoche: Sep 15, 2026, 02:54 UTC

1 69569C 26135Z   26258.12131944 -.00032831  00000+0 -10192-2 0  2581
2 69569  97.2840 285.9633 0001123  98.4694 167.4153 15.33455416    15

Verfolge STARLINK-37924 in Echtzeit mit AllMySat

Download on the App Store